TimeCDT,TemperatureF,Dew PointF,Humidity,Sea Level PressureIn,VisibilityMPH,Wind Direction,Wind SpeedMPH,Gust SpeedMPH,PrecipitationIn,Events,Conditions,WindDirDegrees,DateUTC
12:09 AM,68.0,68.0,100,29.90,0.5,NNW,3.5,-,N/A,Fog,Fog,330,2013-03-19 05:09:00
12:25 AM,68.0,68.0,100,29.89,0.2,Calm,Calm,-,N/A,Fog,Fog,0,2013-03-19 05:25:00
12:56 AM,68.0,68.0,100,29.89,0.2,South,3.5,-,N/A,Fog,Fog,190,2013-03-19 05:56:00
2:05 AM,64.4,64.4,100,29.90,2.5,NNE,9.2,18.4,0.00,,Overcast,30,2013-03-19 07:05:00
2:12 AM,64.4,64.4,100,29.90,10.0,NE,8.1,-,0.00,,Overcast,40,2013-03-19 07:12:00
2:30 AM,64.4,62.6,94,29.89,10.0,NE,3.5,-,0.00,,Mostly Cloudy,50,2013-03-19 07:30:00
2:44 AM,64.4,62.6,94,29.88,10.0,Calm,Calm,-,0.00,,Scattered Clouds,0,2013-03-19 07:44:00
2:56 AM,64.0,63.0,96,29.91,10.0,North,5.8,-,0.00,,Mostly Cloudy,350,2013-03-19 07:56:00
3:04 AM,64.4,62.6,94,29.90,10.0,NNW,3.5,-,N/A,,Mostly Cloudy,330,2013-03-19 08:04:00
3:38 AM,62.6,60.8,94,29.91,10.0,North,5.8,-,N/A,,Overcast,350,2013-03-19 08:38:00
3:56 AM,62.1,60.1,93,29.92,10.0,North,5.8,-,N/A,,Mostly Cloudy,350,2013-03-19 08:56:00
4:56 AM,62.1,57.0,84,29.95,10.0,North,9.2,-,N/A,,Overcast,10,2013-03-19 09:56:00
5:56 AM,61.0,55.9,83,29.97,10.0,North,10.4,-,0.00,,Mostly Cloudy,10,2013-03-19 10:56:00
6:56 AM,60.1,55.9,86,29.99,10.0,North,6.9,-,N/A,,Overcast,10,2013-03-19 11:56:00
7:36 AM,60.8,55.4,82,30.00,10.0,NNE,10.4,-,N/A,,Overcast,20,2013-03-19 12:36:00
7:56 AM,60.1,55.0,83,30.02,10.0,NE,11.5,-,N/A,,Overcast,40,2013-03-19 12:56:00
8:17 AM,60.8,55.4,82,30.02,10.0,NNE,15.0,-,N/A,,Mostly Cloudy,30,2013-03-19 13:17:00
8:56 AM,62.1,54.0,75,30.03,10.0,NNE,12.7,19.6,N/A,,Mostly Cloudy,30,2013-03-19 13:56:00
9:41 AM,64.4,53.6,68,30.03,10.0,NE,12.7,-,N/A,,Partly Cloudy,40,2013-03-19 14:41:00
9:56 AM,64.0,54.0,70,30.03,10.0,NNE,9.2,-,N/A,,Partly Cloudy,30,2013-03-19 14:56:00
10:56 AM,68.0,54.0,61,30.04,10.0,ENE,11.5,-,N/A,,Clear,60,2013-03-19 15:56:00
11:56 AM,69.1,53.1,57,30.04,10.0,ENE,12.7,-,N/A,,Clear,70,2013-03-19 16:56:00
12:56 PM,70.0,53.1,55,30.02,10.0,ENE,12.7,-,N/A,,Partly Cloudy,60,2013-03-19 17:56:00
1:56 PM,72.0,54.0,53,30.00,10.0,East,9.2,-,N/A,,Partly Cloudy,80,2013-03-19 18:56:00
2:56 PM,72.0,57.0,59,29.99,10.0,East,6.9,-,N/A,,Partly Cloudy,100,2013-03-19 19:56:00
3:56 PM,73.0,55.9,55,29.97,10.0,SE,8.1,-,N/A,,Partly Cloudy,130,2013-03-19 20:56:00
4:56 PM,72.0,55.9,57,29.95,10.0,SE,11.5,-,N/A,,Scattered Clouds,130,2013-03-19 21:56:00
5:56 PM,69.1,55.9,63,29.96,10.0,ESE,5.8,-,N/A,,Scattered Clouds,120,2013-03-19 22:56:00
6:56 PM,64.9,57.0,75,29.96,10.0,ESE,4.6,-,N/A,,Partly Cloudy,110,2013-03-19 23:56:00
7:56 PM,61.0,57.0,87,29.98,10.0,Calm,Calm,-,N/A,,Partly Cloudy,0,2013-03-20 00:56:00
8:56 PM,57.9,55.9,93,29.99,10.0,Calm,Calm,-,N/A,,Partly Cloudy,0,2013-03-20 01:56:00
9:56 PM,55.0,54.0,96,30.00,10.0,Calm,Calm,-,0.00,Rain,Light Rain,0,2013-03-20 02:56:00
10:56 PM,55.0,54.0,96,30.01,10.0,North,4.6,-,0.00,Rain,Light Rain,350,2013-03-20 03:56:00
11:56 PM,60.1,50.0,69,30.01,10.0,NE,8.1,-,0.00,,Clear,40,2013-03-20 04:56:00